Home > Time Zones > World Clock > Weather > Aktau > Past weeks

Flag for Kazakhstan Weather past 2 weeks in Aktau, Kazakhstan

Now
30 °F

Clear.


Feels Like: 18 °F
Forecast: 36 / 52 °F
Wind: 17 mph from Southeast

Location: Aktau

Current Time: Feb 28, 2015 at 2:51:00 AM

Latest Report: Feb 28, 2015 at 2:00 AM


Visibility: 10 mi

Pressure: 30.39 "Hg

Humidity: 80%

Dew point: 25 °F

Location of AktauLocation

Historic Weather in Aktau — Graph

°F

Aktau temperature yesterday

Maximum temperature yesterday: 46 °F (at 4:30 PM)
Minimum temperature yesterday: 23 °F (at 1:30 AM)
Average temperature yesterday: 33 °F

Past Weeks' High & Low Weather Summary

 TemperatureHumidityPressure
High50 °F (Feb 26, 4:30 PM)93% (Feb 15, 3:30 AM)30.60 "Hg (Feb 15, 3:30 AM)
Low12 °F (Feb 19, 4:00 AM)13% (Feb 23, 3:30 PM)30.04 "Hg (Feb 16, 3:00 PM)
Average30 °F64%30.28 "Hg
* Reported Feb 13 1:00 AM — Feb 28 1:30 AM, Aktau, Weather by CustomWeather, © 2015

Note: Actual official high and low records may vary slightly from our data, if they occured in-between our weather recording intervals... More about our weather records

Advertising

Aktau weather history for previous 24 hours

 ConditionsComfort  
Time TempWeatherWind HumidityBarometerVisibility
1:30 AM
Sat, Feb 28
28 °FClear.15 mph86%30.42 "Hg10 mi
1:00 AM28 °FClear.13 mph86%30.42 "Hg10 mi
12:30 AM30 °FClear.15 mph80%30.45 "Hg10 mi
12:00 AM30 °FClear.13 mph80%30.45 "Hg10 mi
11:30 PM
Fri, Feb 27
32 °FClear.10 mph75%30.45 "Hg10 mi
11:00 PM32 °FClear.8 mph75%30.48 "Hg10 mi
10:30 PM32 °FClear.10 mph75%30.48 "Hg10 mi
10:00 PM32 °FClear.10 mph80%30.48 "Hg10 mi
9:30 PM36 °FClear.10 mph70%30.48 "Hg10 mi
9:00 PM34 °FSunny.8 mph75%30.48 "Hg10 mi
8:30 PM34 °FSunny.8 mph75%30.51 "Hg10 mi
8:00 PM34 °FSunny.6 mph75%30.51 "Hg10 mi
7:30 PM37 °FSunny.8 mph65%30.51 "Hg10 mi
7:00 PM39 °FSunny.13 mph65%30.51 "Hg10 mi
6:30 PM41 °FSunny.15 mph61%30.48 "Hg10 mi
6:00 PM41 °FSunny.15 mph61%30.48 "Hg10 mi
5:30 PM43 °FSunny.15 mph53%30.48 "Hg10 mi
5:00 PM45 °FSunny.15 mph53%30.48 "Hg10 mi
4:30 PM46 °FSunny.15 mph43%30.51 "Hg10 mi
4:00 PM45 °FSunny.15 mph42%30.51 "Hg10 mi
3:30 PM45 °FSunny.15 mph46%30.51 "Hg10 mi
3:00 PM45 °FSunny.15 mph46%30.54 "Hg10 mi
2:30 PM45 °FSunny.15 mph46%30.54 "Hg10 mi
2:00 PM43 °FPassing clouds.15 mph49%30.57 "HgN/A
1:30 PM41 °FSunny.13 mph57%30.57 "Hg10 mi
1:00 PM41 °FSunny.13 mph57%30.60 "Hg10 mi
12:30 PM39 °FSunny.13 mph61%30.60 "Hg10 mi
12:00 PM39 °FSunny.13 mph56%30.60 "Hg10 mi
11:30 AM37 °FSunny.10 mph65%30.60 "Hg10 mi
11:00 AM36 °FSunny.13 mph70%30.60 "Hg10 mi
10:30 AM34 °FSunny.10 mph75%30.60 "Hg10 mi
10:00 AM32 °FClear.8 mph75%30.60 "Hg10 mi
9:30 AM28 °FClear.8 mph80%30.60 "Hg10 mi
8:30 AM23 °FClear.8 mph86%30.60 "Hg10 mi
8:00 AM23 °FClear.6 mph86%30.60 "Hg10 mi
7:30 AM23 °FClear.6 mph86%30.60 "Hg10 mi
7:00 AM23 °FClear.8 mph86%30.60 "Hg10 mi
6:30 AM23 °FClear.10 mph86%30.60 "Hg10 mi
6:00 AM23 °FClear.10 mph86%30.60 "Hg10 mi
5:30 AM23 °FClear.8 mph86%30.57 "Hg10 mi
5:00 AM23 °FClear.8 mph86%30.57 "Hg10 mi
4:30 AM23 °FClear.8 mph86%30.57 "Hg10 mi
4:00 AM25 °FClear.10 mph86%30.57 "Hg10 mi
3:30 AM25 °FClear.10 mph80%30.57 "Hg10 mi
3:00 AM25 °FClear.10 mph80%30.57 "Hg10 mi
2:30 AM25 °FClear.10 mph80%30.60 "Hg10 mi
2:00 AM23 °FClear.10 mph86%30.57 "Hg10 mi
Weather by CustomWeather, © 2015

See weather overviewHow to use our weather pages